GLOBALSTAR M001 1 25162U 98008A 26095.23887052 -.00000047 00000+0 38016-3 0 9990 2 25162 52.0025 203.1676 0002054 146.3173 227.3374 12.38230694279894 GLOBALSTAR M004 1 25163U 98008B 26095.18201484 -.00000082 00000+0 12186-3 0 9993 2 25163 51.9996 243.3298 0003087 204.1155 328.1748 12.63418019298596 GLOBALSTAR M002 1 25164U 98008C 26095.07110289 -.00000057 00000+0 38743-3 0 9993 2 25164 52.0005 228.3484 0000623 332.9895 27.0893 11.61515723217981 GLOBALSTAR M003 1 25165U 98008D 26095.04791855 -.00000201 00000+0 -11915-2 0 9998 2 25165 51.9839 80.1151 0008056 156.7104 244.8843 12.12019078268612 GLOBALSTAR M014 1 25306U 98023A 26095.05043050 -.00000038 00000+0 73116-3 0 9999 2 25306 51.9818 145.4868 0001269 173.3401 192.7095 11.65485909225205 GLOBALSTAR M006 1 25307U 98023B 26095.26104229 -.00000081 00000+0 -11629-3 0 9999 2 25307 51.9934 208.3453 0002759 270.0058 105.6887 11.58178915250671 GLOBALSTAR M015 1 25308U 98023C 26095.32747893 -.00000065 00000+0 18813-3 0 9990 2 25308 51.9845 320.0452 0012104 234.7268 297.2304 11.48860880227651 GLOBALSTAR M008 1 25309U 98023D 26095.21895819 -.00000088 00000+0 67727-4 0 9995 2 25309 51.9967 71.3647 0002944 69.4437 302.5531 12.36082336273968 GLOBALSTAR M023 1 25621U 99004A 26095.19759708 -.00000027 00000+0 42587-3 0 9994 2 25621 52.0096 244.2492 0010290 55.4197 118.6157 12.62521727252610 GLOBALSTAR M040 1 25622U 99004B 26095.20628691 -.00000062 00000+0 23496-3 0 9990 2 25622 51.9909 248.8068 0000307 19.2443 153.2643 12.62032201252126 GLOBALSTAR M036 1 25623U 99004C 26095.24696225 .00000043 00000+0 18274-2 0 9998 2 25623 51.9960 190.4951 0010209 249.2070 135.4031 11.86623890213653 GLOBALSTAR M038 1 25624U 99004D 26095.30725020 -.00000064 00000+0 25291-3 0 9994 2 25624 51.9987 310.2884 0001135 327.7419 203.9265 12.32543199238390 GLOBALSTAR M022 1 25649U 99012A 26095.32219464 -.00000050 00000+0 44153-3 0 9995 2 25649 52.0033 216.7349 0002599 42.8616 342.7401 12.02511860211523 GLOBALSTAR M041 1 25650U 99012B 26095.31055046 -.00000079 00000+0 86865-4 0 9998 2 25650 52.0001 107.1236 0001300 177.7973 182.2870 11.96682728213254 GLOBALSTAR M046 1 25651U 99012C 26094.94699197 -.00000048 00000+0 45265-3 0 9992 2 25651 52.0040 157.2408 0002225 118.3997 52.9313 12.09422575218964 GLOBALSTAR M037 1 25652U 99012D 26095.26756590 -.00000062 00000+0 23263-3 0 9990 2 25652 52.0033 14.5439 0002455 102.6134 68.7418 12.62463948248164 GLOBALSTAR M045 1 25676U 99019A 26095.28205675 -.00000141 00000+0 -41860-3 0 9990 2 25676 51.9965 192.7257 0000576 137.7680 257.0329 12.27073445229259 GLOBALSTAR M019 1 25677U 99019B 26095.11182014 -.00000015 00000+0 78543-3 0 9991 2 25677 51.9909 344.1240 0001287 152.4210 14.0317 12.13882826220598 GLOBALSTAR M044 1 25678U 99019C 26095.11138213 -.00000032 00000+0 72575-3 0 9992 2 25678 51.9995 332.0043 0005522 240.0824 287.3435 11.90264756206086 GLOBALSTAR M042 1 25679U 99019D 26095.31984491 -.00000052 00000+0 38172-3 0 9999 2 25679 52.0023 306.2464 0002888 165.5414 5.1963 12.22095603220974 GLOBALSTAR M025 1 25770U 99031A 26094.55966307 -.00000072 00000+0 -13327-3 0 9994 2 25770 51.9805 204.2822 0001915 245.5277 127.3996 11.22560686514430 GLOBALSTAR M049 1 25771U 99031B 26095.10370318 -.00000107 00000+0 -14390-2 0 9997 2 25771 51.9863 252.4538 0003337 141.6591 218.4443 11.12123876149909 GLOBALSTAR M047 1 25772U 99031C 26095.09372553 -.00000063 00000+0 18825-3 0 9997 2 25772 51.9821 221.5568 0016411 47.1052 313.1129 11.31933068504163 GLOBALSTAR M052 1 25773U 99031D 26095.22662280 -.00000049 00000+0 55765-3 0 9990 2 25773 51.9910 356.7440 0002106 307.4321 225.9230 11.15063797511087 GLOBALSTAR M035 1 25851U 99037A 26095.25689339 -.00000018 00000+0 17324-2 0 9994 2 25851 51.9922 123.6162 0013578 96.7186 346.4252 11.04541494128531 GLOBALSTAR M032 1 25852U 99037B 26095.24006103 -.00000080 00000+0 -43470-3 0 9998 2 25852 51.9957 288.7078 0012007 299.8073 60.1532 11.19069279167486 GLOBALSTAR M051 1 25853U 99037C 26095.17225096 -.00000073 00000+0 -28780-4 0 9995 2 25853 51.9804 56.5090 0000273 106.3453 253.7388 11.42201260165750 GLOBALSTAR M030 1 25854U 99037D 26095.31062670 .00000012 00000+0 18360-2 0 9991 2 25854 51.9868 203.7051 0003844 191.6392 168.4336 11.55108004183807 GLOBALSTAR M048 1 25872U 99041A 26095.11107542 -.00000053 00000+0 46855-3 0 9999 2 25872 51.9413 2.9778 0013196 333.0438 167.0788 11.33862956158090 GLOBALSTAR M026 1 25873U 99041B 26095.14904649 -.00000030 00000+0 12639-2 0 9993 2 25873 51.9997 238.7374 0001821 53.5976 118.5876 11.06842956180814 GLOBALSTAR M043 1 25874U 99041C 26095.04258719 -.00000030 00000+0 11484-2 0 9990 2 25874 51.9370 122.4100 0013434 90.5444 290.3325 11.25699575155740 GLOBALSTAR M028 1 25875U 99041D 26095.19410606 -.00000114 00000+0 -87359-4 0 9992 2 25875 51.9645 42.3370 0063565 346.0756 13.8352 12.50598327226716 GLOBALSTAR M024 1 25883U 99043A 26095.20030396 -.00000138 00000+0 -25852-2 0 9993 2 25883 52.0009 81.7310 0001439 217.3615 226.7759 11.10171716147293 GLOBALSTAR M027 1 25884U 99043B 26095.21749779 -.00000072 00000+0 -33342-3 0 9998 2 25884 52.0186 167.9525 0021691 103.9567 256.3640 11.04373442173507 GLOBALSTAR M054 1 25885U 99043C 26095.15901191 -.00000047 00000+0 62315-3 0 9993 2 25885 52.0128 246.3804 0004118 327.8291 205.1178 11.39225976152323 GLOBALSTAR M053 1 25886U 99043D 26095.22145093 -.00000050 00000+0 53657-3 0 9996 2 25886 51.9972 209.5288 0003679 206.2384 160.2222 11.27671185152392 GLOBALSTAR M058 1 25907U 99049A 26095.24776574 -.00000049 00000+0 48347-3 0 9990 2 25907 51.9958 49.2832 0002315 109.6923 250.4162 11.93209883576407 GLOBALSTAR M050 1 25908U 99049B 26095.28840021 -.00000125 00000+0 -42175-3 0 9993 2 25908 52.0015 35.0276 0008596 254.8227 272.0420 12.07466508183479 GLOBALSTAR M033 1 25909U 99049C 26095.11042505 -.00000018 00000+0 71208-3 0 9996 2 25909 51.9900 247.1892 0015087 142.7355 217.4542 12.20305493571380 GLOBALSTAR M055 1 25910U 99049D 26095.12379849 -.00000088 00000+0 53325-4 0 9991 2 25910 52.0008 243.6808 0006901 25.4038 334.7152 12.29442501204194 GLOBALSTAR M057 1 25943U 99058A 26095.09993361 -.00000051 00000+0 37786-3 0 9996 2 25943 51.9977 239.7459 0001867 242.8473 117.2186 12.24837416202709 GLOBALSTAR M059 1 25944U 99058B 26095.29929729 -.00000018 00000+0 84498-3 0 9991 2 25944 51.9997 136.9025 0000659 182.7552 258.3530 11.99996614609110 GLOBALSTAR M056 1 25945U 99058C 26095.03196884 -.00000077 00000+0 12496-3 0 9996 2 25945 51.9943 132.1072 0001067 51.2485 319.1103 12.04788804197808 GLOBALSTAR M031 1 25946U 99058D 26095.23063072 -.00000084 00000+0 63300-4 0 9990 2 25946 52.0001 6.3962 0001990 59.7867 107.5888 12.16051651200077 GLOBALSTAR M039 1 25961U 99062A 26095.17946559 -.00000085 00000+0 10296-3 0 9991 2 25961 51.9833 99.3464 0002479 276.2262 83.8322 12.62344614217096 GLOBALSTAR M034 1 25962U 99062B 26095.09869955 -.00000056 00000+0 39121-3 0 9993 2 25962 51.9901 332.5803 0013473 231.3507 297.3863 11.79456466172832 GLOBALSTAR M029 1 25963U 99062C 26095.17575472 -.00000075 00000+0 14338-3 0 9995 2 25963 51.9835 25.0211 0002516 341.3694 158.8741 11.99909485204176 GLOBALSTAR M061 1 25964U 99062D 26095.22544000 -.00000081 00000+0 -13196-4 0 9995 2 25964 51.9778 160.1627 0006383 154.6807 239.1333 11.76777310155565 GLOBALSTAR M063 1 26081U 00008A 26095.21506442 -.00000092 00000+0 -13790-3 0 9996 2 26081 51.9957 62.4615 0004534 149.8936 221.9121 11.86182619192233 GLOBALSTAR M062 1 26082U 00008B 26095.09117799 -.00000087 00000+0 82075-4 0 9992 2 26082 51.9862 317.3676 0007697 22.4174 144.4676 12.43483757532931 GLOBALSTAR M060 1 26083U 00008C 26095.06473523 -.00000026 00000+0 64802-3 0 9990 2 26083 52.0036 318.7503 0003324 14.4313 140.3701 12.17679558187926 GLOBALSTAR M064 1 26084U 00008D 26095.13602332 -.00000057 00000+0 37979-3 0 9990 2 26084 52.0017 158.0623 0001469 243.3156 116.7526 11.88543527201810 GLOBALSTAR M065 1 31571U 07020A 26095.14540771 -.00000034 00000+0 38890-3 0 9995 2 31571 51.9902 57.6214 0009410 234.7146 136.7092 12.62024445870273 GLOBALSTAR M069 1 31573U 07020C 26095.30689461 -.00000090 00000+0 26670-4 0 9991 2 31573 52.0015 98.4037 0001776 0.5068 12.9784 12.23470102869887 GLOBALSTAR M072 1 31574U 07020D 26095.01746410 -.00000068 00000+0 21900-3 0 9993 2 31574 51.9936 295.0464 0001604 139.1283 28.1729 11.91656990866256 GLOBALSTAR M071 1 31576U 07020F 26095.29955257 -.00000121 00000+0 -29578-3 0 9996 2 31576 52.0042 132.2782 0000619 336.7954 104.6858 12.18267980530548 GLOBALSTAR M067 1 32263U 07048A 26095.23582951 -.00000065 00000+0 23715-3 0 9994 2 32263 51.9721 261.3603 0000770 196.5222 334.6912 12.40686619845733 GLOBALSTAR M070 1 32264U 07048B 26095.09574057 -.00000058 00000+0 25301-3 0 9992 2 32264 51.9764 319.2203 0001000 85.2767 80.1013 12.62332711850539 GLOBALSTAR M066 1 32265U 07048C 26094.90158520 -.00000105 00000+0 -89789-4 0 9990 2 32265 51.9581 268.2960 0004057 241.8708 267.7236 12.30387938851201 GLOBALSTAR M068 1 32266U 07048D 26095.03984380 -.00000051 00000+0 29594-3 0 9993 2 32266 51.9868 132.5754 0001119 71.7408 300.7981 12.62844097854439 GLOBALSTAR M079 1 37188U 10054A 26095.06832858 -.00000077 00000+0 15129-3 0 9994 2 37188 52.0058 331.2562 0000679 106.3383 41.4131 12.62264695713319 GLOBALSTAR M074 1 37189U 10054B 26095.09853081 -.00000070 00000+0 18949-3 0 9995 2 37189 52.0039 330.4417 0000633 75.8790 88.7397 12.62267086713923 GLOBALSTAR M076 1 37190U 10054C 26095.04076005 -.00000075 00000+0 16291-3 0 9998 2 37190 52.0052 330.8136 0000441 90.7139 51.7668 12.62271267713637 GLOBALSTAR M077 1 37191U 10054D 26095.11575357 -.00000087 00000+0 -15375-3 0 9997 2 37191 52.0018 4.7803 0000636 144.6763 355.0951 11.68156248712603 GLOBALSTAR M075 1 37192U 10054E 26095.21717977 -.00000077 00000+0 14873-3 0 9995 2 37192 51.9974 12.3693 0000648 76.2959 87.9850 12.62265477712727 GLOBALSTAR M073 1 37193U 10054F 26094.72385637 -.00000086 00000+0 98216-4 0 9999 2 37193 52.0060 287.9173 0000681 113.5754 326.8760 12.62266195714651 GLOBALSTAR M083 1 37739U 11033A 26095.15291123 -.00000076 00000+0 15711-3 0 9994 2 37739 51.9845 234.9368 0000702 132.8216 40.1025 12.62262235683729 GLOBALSTAR M088 1 37740U 11033B 26095.09342771 -.00000071 00000+0 18260-3 0 9992 2 37740 52.0200 141.3709 0000307 113.1928 267.3635 12.62262873679263 GLOBALSTAR M091 1 37741U 11033C 26095.19845008 -.00000104 00000+0 -13876-5 0 9993 2 37741 51.9985 104.1221 0000387 103.8088 335.3988 12.62270866680067 GLOBALSTAR M085 1 37742U 11033D 26095.19045843 -.00000110 00000+0 -32803-4 0 9990 2 37742 52.0133 55.3721 0000548 95.3308 7.7172 12.62269993680576 GLOBALSTAR M081 1 37743U 11033E 26095.21728788 -.00000116 00000+0 -67592-4 0 9999 2 37743 51.9963 57.8104 0000308 80.2983 24.1530 12.62263319680728 GLOBALSTAR M089 1 37744U 11033F 26095.18741964 -.00000078 00000+0 14513-3 0 9997 2 37744 51.9959 12.0769 0000524 45.4133 103.4880 12.62265464681569 GLOBALSTAR M084 1 38040U 11080A 26095.12682918 -.00000095 00000+0 50779-4 0 9990 2 38040 52.0000 239.7042 0000444 100.6558 72.6644 12.62266126659539 GLOBALSTAR M080 1 38041U 11080B 26095.17959395 -.00000092 00000+0 63879-4 0 9994 2 38041 52.0051 241.2369 0001153 107.3497 75.4869 12.62268050659662 GLOBALSTAR M082 1 38042U 11080C 26095.23799358 -.00000075 00000+0 16277-3 0 9993 2 38042 52.0069 196.5520 0000894 121.1220 257.2501 12.62268758660381 GLOBALSTAR M092 1 38043U 11080D 26095.24530708 -.00000074 00000+0 16835-3 0 9996 2 38043 52.0083 286.9243 0000753 93.3595 77.8622 12.62265789658831 GLOBALSTAR M090 1 38044U 11080E 26095.26709457 -.00000078 00000+0 14343-3 0 9994 2 38044 52.0121 190.3957 0000585 131.8719 258.0335 12.62267631660503 GLOBALSTAR M086 1 38045U 11080F 26095.29098034 -.00000064 00000+0 22229-3 0 9997 2 38045 51.9892 190.3723 0000819 221.0281 173.5342 12.62284896660459 GLOBALSTAR M097 1 39072U 13005A 26095.31281286 -.00000110 00000+0 -36920-4 0 9990 2 39072 52.0030 105.1669 0000346 123.9737 236.1163 12.62260212607702 GLOBALSTAR M093 1 39073U 13005B 26095.28662867 -.00000109 00000+0 -28344-4 0 9994 2 39073 52.0093 98.5678 0000391 144.6761 215.4132 12.62264406607653 GLOBALSTAR M094 1 39074U 13005C 26095.20756732 -.00000091 00000+0 70546-4 0 9992 2 39074 51.9990 13.0001 0000568 98.0749 262.0183 12.62267230609254 GLOBALSTAR M096 1 39075U 13005D 26095.22081188 -.00000116 00000+0 -69996-4 0 9997 2 39075 52.0078 61.7008 0000435 98.0436 262.0481 12.62263935608176 GLOBALSTAR M078 1 39076U 13005E 26095.27306697 -.00000020 00000+0 46640-3 0 9991 2 39076 51.9857 145.6534 0001260 108.4485 251.6518 12.62277005606809 GLOBALSTAR M095 1 39077U 13005F 26095.29978391 -.00000076 00000+0 15257-3 0 9991 2 39077 52.0065 143.0740 0000772 131.2397 228.8536 12.62267184606664 GLOBALSTAR M087 1 52888U 22064A 26094.83815457 -.00000097 00000+0 36487-4 0 9995 2 52888 51.9995 285.7628 0000919 113.3131 246.7833 12.62267977181878